Home > Weather > Leoben > Past weeks

Flag for Austria Past Weather in Leoben, Styria, Austria — Yesterday and Last 2 Weeks

Now
70 °F

Partly sunny.


Feels Like: 70 °F
Forecast: 49 / 81 °F
Wind: 3 mph from Southwest

Location: Zeltweg

Current Time: Jun 28, 2016 at 3:30:04 PM

Latest Report: Jun 28, 2016 at 2:50 PM


Visibility: 19 mi

Pressure: 30.09 "Hg (28.26 "Hg at 540m altitude)

Humidity: 43%

Dew Point: 46 °F

Location of LeobenLocation

Past Weather in Leoben — Graph

°F

Leoben Temperature Yesterday

Maximum temperature yesterday: 66 °F (at 4:20 PM)
Minimum temperature yesterday: 54 °F (at 10:50 PM)
Average temperature yesterday: 61 °F

High & Low Weather Summary for the Past Weeks

 TemperatureHumidityPressure
High86 °F (Jun 24, 2:50 PM)100% (Jun 20, 5:50 AM)30.36 "Hg (Jun 20, 5:50 AM)
Low48 °F (Jun 21, 4:50 AM)31% (Jun 17, 12:50 PM)29.56 "Hg (Jun 15, 4:50 AM)
Average66 °F67%30.01 "Hg
* Reported Jun 13 2:20 PM — Jun 28 2:20 PM, Leoben, Weather by CustomWeather, © 2016

Note: Actual official high and low records may vary slightly from our data, if they occured in-between our weather recording intervals... More about our weather records

Advertising

Leoben Weather History for the Previous 24 Hours

Scroll right to see more
 ConditionsComfort  
Time TempWeatherWind HumidityBarometerVisibility
2:20 PM
Tue, Jun 28
70 °FPartly sunny.6 mph40%30.09 "Hg19 mi
1:50 PM70 °FPartly sunny.6 mph43%30.09 "Hg19 mi
1:20 PM72 °FBroken clouds.6 mph41%30.12 "Hg19 mi
12:50 PM70 °FBroken clouds.5 mph40%30.12 "Hg19 mi
12:20 PM70 °FScattered clouds.5 mph43%30.12 "Hg19 mi
11:50 AM70 °FScattered clouds.6 mph46%30.12 "Hg19 mi
11:20 AM70 °FPartly sunny.3 mph40%30.12 "Hg19 mi
10:50 AM68 °FPartly sunny.3 mph46%30.12 "Hg19 mi
10:20 AM66 °FPartly sunny.3 mph56%30.12 "Hg19 mi
9:50 AM66 °FPartly sunny.2 mph60%30.12 "Hg19 mi
9:20 AM64 °FPartly sunny.2 mph64%30.12 "Hg19 mi
8:50 AM59 °FPartly sunny.2 mph77%30.12 "Hg19 mi
8:20 AM57 °FPartly sunny.2 mph77%30.12 "Hg19 mi
7:50 AM55 °FPartly sunny.2 mph82%30.12 "Hg19 mi
7:20 AM54 °FPartly sunny.2 mph88%30.12 "Hg19 mi
6:50 AM54 °FScattered clouds.2 mph82%30.12 "Hg19 mi
5:50 AM52 °FPassing clouds.2 mph88%30.12 "Hg19 mi
10:50 PM
Mon, Jun 27
54 °FPassing clouds.2 mph82%30.15 "Hg19 mi
9:50 PM55 °FScattered clouds.2 mph82%30.12 "Hg19 mi
8:50 PM59 °FScattered clouds.3 mph72%30.12 "Hg19 mi
7:50 PM63 °FPartly sunny.2 mph64%30.12 "Hg19 mi
7:20 PM63 °FPartly sunny.7 mph64%30.09 "Hg19 mi
6:50 PM64 °FPartly sunny.8 mph56%30.09 "Hg19 mi
6:20 PM66 °FBroken clouds.6 mph49%30.09 "Hg19 mi
5:50 PM66 °FBroken clouds.5 mph49%30.09 "Hg19 mi
5:20 PM64 °FPartly sunny.3 mph56%30.09 "Hg19 mi
4:50 PM66 °FPartly sunny.6 mph52%30.09 "Hg19 mi
4:20 PM66 °FBroken clouds.6 mph52%30.09 "Hg19 mi
3:50 PM64 °FBroken clouds.3 mph52%30.09 "Hg19 mi
3:20 PM64 °FBroken clouds.3 mph56%30.09 "Hg19 mi
Weather by CustomWeather, © 2016

See weather overviewHow to use our weather pages